User: anonymous   Login
Location: Unspecified
(0.0000°N, 0.0000°E)
Time: 03:01:28
(UTC+00:00)
Language:

STARLINK-3941 - Orbit

View from above orbital plane
View from above orbital plane
View from above satellite
View from above satellite

Ground track
Ground track

The orbit is defined by the following mean orbital elements,

1 52638U          26145.40688883 +.00000000 +00000-0 +30718-4 0 00003
2 52638  53.2153 284.7219 0001365  89.7237 270.3912 15.08836515    05
Epoch (UTC): 25 May 2026 09:45:55
Eccentricity: 0.0001365
inclination: 53.2153°
perigee height: 539 km
apogee height: 541 km
right ascension of ascending node: 284.7219°
argument of perigee: 89.7237°
revolutions per day: 15.08836515
mean anomaly at epoch: 270.3912°

The dashed part of the orbit path shows where the satellite is in the earth's shadow,  

DLR